Location: *
(43.0409°N, 0.1694°E)
Time: 22:22:51
(UTC+00:00)

ADEOS II - Pass Details

Date: 03 October 2023
Orbit: 798 x 798 km, 98.7° (Epoch: 05 December)

Event Time Altitude Azimuth Distance (km) Brightness Sun altitude
Rises 02:30:36 0° 11° (N) 3,316 5.8 -36.9°
Reaches altitude 10° 02:32:57 10° 8° (N) 2,382 5.0 -36.5°
Enters shadow 02:34:32 20° 5° (N) 1,770 4.2 -36.3°
